Location: Fort Worth, Tx
(32.7431°N, 97.3695°W)
Time: 12:44:27
(UTC-04:00)

Tiros 1 - All Passes

Search period start: 03 October 2024 00:00
Search period end: 13 October 2024 00:00
Orbit: 623 x 655 km, 48.4° (Epoch: 02 October)

Date Brightness Start Highest point End Pass type
(mag) Time Alt. Az. Time Alt. Az. Time Alt. Az.
03 Oct - 09:01:37 10° S 09:05:10 22° SE 09:08:42 10° E daylight
03 Oct - 10:42:21 10° WSW 10:46:54 55° NW 10:51:25 10° NE daylight
03 Oct - 12:26:49 10° WNW 12:29:41 16° NNW 12:32:32 10° NNE daylight
03 Oct - 14:11:58 10° NNW 14:13:17 11° N 14:14:36 10° NNE daylight
03 Oct - 15:53:10 10° NNW 15:56:42 21° NNE 16:00:14 10° ENE daylight
03 Oct - 17:34:32 10° NW 17:39:08 83° SW 17:43:42 10° SE daylight
03 Oct - 19:19:33 10° WSW 19:20:33 11° SW 19:21:32 10° SW daylight
04 Oct - 09:23:47 10° SSW 09:28:19 53° SE 09:32:49 10° ENE daylight
04 Oct - 11:06:29 10° W 11:10:29 28° NNW 11:14:29 10° NNE daylight
04 Oct - 12:51:58 10° NNW 12:53:43 12° N 12:55:29 10° NNE daylight
04 Oct - 14:35:08 10° NNW 14:37:24 13° NNE 14:39:39 10° NE daylight
04 Oct - 16:16:09 10° NW 16:20:25 38° NNE 16:24:41 10° E daylight
04 Oct - 17:58:14 10° WNW 18:02:21 33° SW 18:06:28 10° SSE daylight
05 Oct - 08:06:51 10° S 08:10:00 18° SE 08:13:07 10° E daylight
05 Oct - 09:47:00 10° WSW 09:51:38 66° NW 09:56:14 10° NE daylight
05 Oct - 11:31:12 10° WNW 11:34:18 17° NNW 11:37:23 10° NNE daylight
05 Oct - 13:16:36 10° NNW 13:17:52 11° N 13:19:06 10° NNE daylight
05 Oct - 14:58:01 10° NNW 15:01:21 19° NNE 15:04:40 10° ENE daylight
05 Oct - 16:39:18 10° NW 16:43:53 82° NE 16:48:27 10° SE daylight
05 Oct - 18:23:10 10° W 18:25:23 13° SW 18:27:35 10° SSW daylight
06 Oct - 08:28:39 10° SSW 08:33:04 43° SE 08:37:28 10° ENE daylight
06 Oct - 10:10:58 10° W 10:15:09 32° NNW 10:19:18 10° NE daylight
06 Oct - 11:56:16 10° NW 11:58:17 13° N 12:00:18 10° NNE daylight
06 Oct - 13:39:56 10° NNW 13:41:58 13° N 13:44:00 10° NE daylight
06 Oct - 15:20:57 10° NW 15:25:05 33° NNE 15:29:13 10° E daylight
06 Oct - 17:02:50 10° WNW 17:07:07 41° SW 17:11:25 10° SSE daylight
07 Oct - 07:12:13 10° SSE 07:14:47 15° SE 07:17:20 10° E visible
07 Oct - 08:51:39 10° SW 08:56:19 79° NW 09:00:57 10° NE daylight
07 Oct - 10:35:32 10° WNW 10:38:53 19° NNW 10:42:13 10° NNE daylight
07 Oct - 12:21:06 10° NNW 12:22:23 11° N 12:23:40 10° NNE daylight
07 Oct - 14:02:50 10° NNW 14:05:56 18° NNE 14:09:02 10° ENE daylight
07 Oct - 15:44:01 10° NW 15:48:35 68° NE 15:53:08 10° ESE daylight
07 Oct - 17:27:17 10° W 17:30:10 17° SW 17:33:03 10° SSW daylight
08 Oct - 07:33:31 10° SSW 07:37:48 36° SE 07:42:03 10° ENE visible
08 Oct - 09:15:26 10° W 09:19:46 37° NNW 09:24:05 10° NE daylight
08 Oct - 11:00:32 10° NW 11:02:49 13° NNW 11:05:05 10° NNE daylight
08 Oct - 12:44:40 10° NNW 12:46:29 12° N 12:48:18 10° NNE daylight
08 Oct - 14:25:42 10° NNW 14:29:42 29° NNE 14:33:41 10° E daylight
08 Oct - 16:07:25 10° WNW 16:11:51 50° SW 16:16:16 10° SSE daylight
09 Oct - 06:17:52 10° SSE 06:19:32 12° SE 06:21:10 10° ESE visible
09 Oct - 07:56:17 10° SW 08:00:59 87° SE 08:05:38 10° NE visible
09 Oct - 09:39:52 10° WNW 09:43:26 21° NNW 09:47:00 10° NNE daylight
09 Oct - 11:25:29 10° NNW 11:26:52 11° N 11:28:15 10° NNE daylight
09 Oct - 13:07:35 10° NNW 13:10:28 16° NNE 13:13:21 10° ENE daylight
09 Oct - 14:48:43 10° NW 14:53:14 57° NE 14:57:43 10° ESE daylight
09 Oct - 16:31:32 10° W 16:34:54 20° SW 16:38:16 10° S daylight
10 Oct - 06:38:25 10° SSW 06:42:29 29° SE 06:46:32 10° ENE visible
10 Oct - 08:19:54 10° WSW 08:24:22 43° NNW 08:28:48 10° NE daylight
10 Oct - 10:04:45 10° NW 10:07:18 14° NNW 10:09:50 10° NNE daylight
10 Oct - 11:49:20 10° NNW 11:50:57 12° N 11:52:35 10° NNE daylight
10 Oct - 13:30:26 10° NNW 13:34:16 25° NNE 13:38:04 10° E daylight
10 Oct - 15:11:59 10° WNW 15:16:31 62° SW 15:21:01 10° SE daylight
11 Oct - 07:00:56 10° SW 07:05:36 72° SE 07:10:15 10° NE visible
11 Oct - 08:44:09 10° W 08:47:57 24° NNW 08:51:43 10° NNE daylight
11 Oct - 10:29:45 10° NNW 10:31:19 11° N 10:32:52 10° NNE daylight
11 Oct - 12:12:17 10° NNW 12:14:56 15° NNE 12:17:36 10° NE daylight
11 Oct - 13:53:22 10° NW 13:57:49 48° NE 14:02:14 10° ESE daylight
11 Oct - 15:35:52 10° WNW 15:39:36 25° SW 15:43:19 10° S daylight
12 Oct - 05:43:21 10° S 05:47:08 24° SE 05:50:55 10° ENE visible
12 Oct - 07:24:21 10° WSW 07:28:55 51° NW 07:33:28 10° NE visible
12 Oct - 09:08:56 10° NW 09:11:45 16° NNW 09:14:33 10° NNE daylight
12 Oct - 10:53:53 10° NNW 10:55:22 11° N 10:56:52 10° NNE daylight
12 Oct - 12:35:06 10° NNW 12:38:46 23° NNE 12:42:24 10° ENE daylight
12 Oct - 14:16:33 10° NW 14:21:08 76° SW 14:25:41 10° SE daylight
